Location: Hohenfelde
(53.8441°N, 9.6220°E)
Time: 12:01:43
(UTC+00:00)

Meteor 1-20 Rocket - Pass Details

Date: 14 July 2020
Orbit: 820 x 891 km, 81.2° (Epoch: 09 August)

Event Time Altitude Azimuth Distance (km) Brightness Sun altitude
Exits shadow 00:58:20 16° 210° (SSW) 2,069 5.6 -12.0°
Maximum altitude 01:02:48 61° 288° (WNW) 971 4.5 -11.8°
Drops below altitude 10° 01:08:29 10° 9° (N) 2,526 8.1 -11.4°
Sets 01:10:59 0° 13° (NNE) 3,478 9.3 -11.3°
